period_start,C,m1,H,J0,J1,J2,J3,J4,J5,JA,JB,JC,JD,JJ,JK,JN,#
2016-10-14 00:02:41,0.05,2.55,0.00,24.96,28.85,31.41,14.33,46.40,1025.91,2025.28,2565.88,2494.60,2796.06,599.80,597.49,36.02,0000 0000 0000 0000 000000
2016-10-14 00:07:42,0.04,2.56,0.00,24.97,28.84,31.40,14.52,46.64,1025.91,2025.48,2565.13,2494.03,2795.96,599.82,597.30,36.07,0000 0000 0000 0000 000000
2016-10-14 00:12:44,0.03,2.56,0.00,24.96,28.84,31.41,14.56,46.55,1025.91,2025.45,2564.91,2494.00,2795.39,600.31,597.85,36.12,0000 0000 0000 0000 000000
2016-10-14 00:17:45,0.04,2.56,0.00,24.96,28.84,31.40,14.48,46.48,1025.90,2025.62,2564.16,2493.89,2794.99,599.97,597.53,36.17,0000 0000 0000 0000 000000
2016-10-14 00:22:46,0.08,2.57,0.00,24.96,28.84,31.44,14.49,46.51,1025.90,2025.72,2563.07,2493.05,2794.22,599.93,597.46,36.22,0000 0000 0000 0000 000000
2016-10-14 00:27:47,-0.01,2.57,0.00,24.98,28.84,31.42,14.55,46.47,1025.90,2025.69,2563.00,2493.00,2794.22,599.55,597.07,36.27,0000 0000 0000 0000 000000
2016-10-14 00:32:49,0.01,2.57,0.00,24.96,28.84,31.43,14.54,46.52,1025.90,2025.65,2562.57,2492.96,2794.03,600.06,597.58,36.32,0000 0000 0000 0000 000000
2016-10-14 00:37:50,0.01,2.57,0.00,24.97,28.84,31.41,14.50,46.48,1025.90,2025.41,2561.99,2492.29,2793.96,599.90,597.46,36.37,0000 0000 0000 0000 000000
2016-10-14 00:42:52,0.06,2.57,0.00,24.99,28.84,31.41,14.47,46.57,1025.90,2025.33,2560.96,2491.87,2793.10,599.78,597.30,36.42,0000 0000 0000 0000 000000
2016-10-14 00:47:53,0.09,2.57,0.00,24.97,28.84,31.41,14.50,46.48,1025.90,2025.41,2559.15,2491.04,2792.08,599.75,597.29,36.47,0000 0000 0000 0000 000000
2016-10-14 00:52:54,0.01,2.58,0.00,24.98,28.85,31.42,14.52,46.42,1025.90,2025.50,2559.00,2490.99,2792.00,599.97,597.42,36.52,0000 0000 0000 0000 000000
2016-10-14 00:57:56,-0.02,2.57,0.00,24.97,28.85,31.41,14.60,46.57,1025.90,2025.33,2559.00,2490.97,2792.00,600.40,597.98,36.57,0000 0000 0000 0000 000000
2016-10-14 01:02:57,0.02,2.58,0.00,24.97,28.85,31.40,14.46,46.59,1025.90,2025.49,2559.00,2490.97,2791.99,600.09,597.79,36.62,0000 0000 0000 0000 000000
2016-10-14 01:07:58,-0.04,2.58,0.00,25.00,28.85,31.40,14.50,46.38,1025.90,2025.38,2559.00,2490.93,2791.99,600.07,597.52,36.67,0000 0000 0000 0000 000000
2016-10-14 01:13:00,0.01,2.57,0.00,24.98,28.85,31.41,14.49,46.27,1025.90,2025.18,2558.97,2490.68,2791.92,599.89,597.33,36.72,0000 0000 0000 0000 000000
2016-10-14 01:18:01,0.01,2.58,0.00,24.97,28.85,31.43,14.50,46.27,1025.90,2025.26,2558.96,2490.65,2791.91,600.01,597.51,36.77,0000 0000 0000 0000 000000
2016-10-14 01:23:02,0.01,2.58,0.00,24.99,28.85,31.43,14.53,46.58,1025.89,2025.27,2558.95,2490.42,2791.84,600.13,597.48,36.83,0000 0000 0000 0000 000000
2016-10-14 01:28:04,-0.00,2.58,0.00,24.98,28.85,31.40,14.50,46.54,1025.89,2025.21,2558.92,2490.23,2791.81,600.11,597.57,36.88,0000 0000 0000 0000 000000
2016-10-14 01:33:05,0.01,2.58,0.00,24.99,28.86,31.42,14.57,46.48,1025.89,2025.14,2558.79,2490.08,2791.62,599.86,597.33,36.93,0000 0000 0000 0000 000000
2016-10-14 01:38:06,0.01,2.58,0.00,25.00,28.87,31.43,14.50,46.60,1025.89,2025.16,2558.33,2490.04,2791.16,599.81,597.23,36.98,0000 0000 0000 0000 000000
2016-10-14 01:43:07,0.01,2.58,0.00,24.99,28.87,31.42,14.60,46.52,1025.89,2025.26,2558.24,2490.02,2791.14,600.58,598.08,37.03,0000 0000 0000 0000 000000
2016-10-14 01:48:09,-0.00,2.58,0.00,25.00,28.87,31.42,14.42,46.44,1025.89,2025.16,2558.25,2490.01,2791.13,599.75,597.22,37.08,0000 0000 0000 0000 000000
2016-10-14 01:53:10,-0.00,2.58,0.00,24.99,28.87,31.44,14.49,46.58,1025.88,2025.08,2558.23,2490.01,2791.13,600.26,597.64,37.13,0000 0000 0000 0000 000000
2016-10-14 01:58:11,-0.00,2.58,0.00,25.00,28.88,31.45,14.58,46.62,1025.89,2025.04,2558.15,2490.00,2791.06,600.03,597.40,37.18,0000 0000 0000 0000 000000
2016-10-14 02:03:13,0.00,2.58,0.00,25.02,28.89,31.46,14.54,46.58,1025.89,2025.03,2558.03,2490.00,2791.01,600.08,597.46,37.23,0000 0000 0000 0000 000000
2016-10-14 02:08:14,0.00,2.58,0.00,25.01,28.90,31.44,14.61,46.62,1025.88,2025.03,2558.01,2490.00,2791.00,600.77,598.05,37.28,0000 0000 0000 0000 000000
2016-10-14 02:13:15,0.00,2.58,0.00,25.00,28.90,31.43,14.51,46.48,1025.88,2025.03,2558.00,2489.99,2791.00,600.27,597.51,37.33,0000 0000 0000 0000 000000
2016-10-14 02:18:16,-0.00,2.58,0.00,25.02,28.90,31.43,14.49,46.42,1025.88,2025.02,2558.00,2489.98,2791.00,599.97,597.32,37.38,0000 0000 0000 0000 000000
2016-10-14 02:23:18,0.00,2.58,0.00,25.05,28.90,31.42,14.54,46.49,1025.89,2025.01,2557.98,2489.98,2790.98,600.09,597.37,37.43,0000 0000 0000 0000 000000
2016-10-14 02:28:19,0.04,2.58,0.00,25.08,28.90,31.42,14.46,46.38,1025.89,2025.01,2557.58,2489.87,2790.57,599.52,596.88,37.48,0000 0000 0000 0000 000000
2016-10-14 02:33:20,0.00,2.58,0.00,25.08,28.90,31.42,14.45,46.43,1025.89,2025.01,2557.29,2489.74,2790.33,600.01,597.45,37.53,0000 0000 0000 0000 000000
2016-10-14 02:38:22,0.01,2.58,0.00,25.07,28.90,31.45,14.45,46.48,1025.89,2025.02,2557.16,2489.34,2790.15,599.85,597.13,37.58,0000 0000 0000 0000 000000
2016-10-14 02:43:23,0.02,2.58,0.00,25.08,28.90,31.43,14.52,46.59,1025.89,2025.01,2557.07,2489.16,2790.09,600.52,597.77,37.63,0000 0000 0000 0000 000000
2016-10-14 02:48:24,0.01,2.58,0.00,25.07,28.90,31.42,14.51,46.48,1025.89,2025.03,2556.97,2489.02,2789.99,599.83,597.24,37.68,0000 0000 0000 0000 000000
2016-10-14 02:53:26,-0.00,2.58,0.00,25.05,28.91,31.43,14.43,46.42,1025.90,2025.00,2556.90,2489.00,2789.96,599.86,597.32,37.73,0000 0000 0000 0000 000000
2016-10-14 02:58:27,0.00,2.58,0.00,25.06,28.91,31.43,14.57,46.40,1025.90,2025.00,2556.98,2489.00,2789.99,600.12,597.36,37.78,0000 0000 0000 0000 000000
2016-10-14 03:03:28,0.00,2.58,0.00,25.08,28.92,31.41,14.53,46.47,1025.91,2025.00,2556.98,2489.00,2789.99,599.89,597.17,37.83,0000 0000 0000 0000 000000
2016-10-14 03:08:29,0.00,2.58,0.00,25.10,28.92,31.43,14.52,46.41,1025.92,2025.00,2556.99,2489.00,2789.99,600.07,597.33,37.89,0000 0000 0000 0000 000000
2016-10-14 03:13:31,0.00,2.58,0.00,25.12,28.92,31.43,14.46,46.58,1025.92,2025.00,2557.00,2489.00,2790.01,599.87,597.06,37.94,0000 0000 0000 0000 000000
2016-10-14 03:18:32,0.00,2.58,0.00,25.11,28.92,31.43,14.44,46.49,1025.94,2025.00,2557.01,2489.00,2790.02,599.94,597.16,37.99,0000 0000 0000 0000 000000
2016-10-14 03:23:33,0.00,2.58,0.00,25.11,28.92,31.43,14.48,46.44,1025.96,2025.00,2557.00,2489.00,2790.00,600.21,597.34,38.04,0000 0000 0000 0000 000000
2016-10-14 03:28:34,0.00,2.58,0.00,25.12,28.92,31.43,14.56,46.42,1025.94,2025.00,2557.00,2489.00,2790.01,600.11,597.38,38.09,0000 0000 0000 0000 000000
2016-10-14 03:33:35,0.00,2.58,0.00,25.12,28.92,31.42,14.50,46.55,1025.96,2025.00,2557.00,2489.00,2790.00,599.94,597.12,38.14,0000 0000 0000 0000 000000
2016-10-14 03:38:36,0.00,2.58,0.00,25.12,28.92,31.44,14.42,46.43,1025.99,2025.00,2556.99,2488.99,2789.99,600.00,597.31,38.19,0000 0000 0000 0000 000000
2016-10-14 03:43:38,0.00,2.58,0.00,25.12,28.92,31.44,14.49,46.63,1026.03,2025.00,2556.97,2488.99,2789.99,599.59,596.99,38.24,0000 0000 0000 0000 000000
2016-10-14 03:48:39,0.00,2.58,0.00,25.12,28.92,31.43,14.48,46.47,1026.10,2025.00,2556.96,2488.99,2789.98,600.25,597.57,38.29,0000 0000 0000 0000 000000
2016-10-14 03:53:40,0.00,2.58,0.00,25.12,28.92,31.45,14.46,46.52,1026.14,2025.00,2556.98,2488.96,2789.99,600.02,597.32,38.34,0000 0000 0000 0000 000000
2016-10-14 03:58:41,0.00,2.58,0.00,25.12,28.92,31.44,14.51,46.52,1026.18,2025.00,2556.99,2488.98,2789.99,600.26,597.62,38.39,0000 0000 0000 0000 000000
2016-10-14 04:03:43,0.00,2.58,0.00,25.13,28.92,31.42,14.50,46.33,1026.25,2025.00,2556.99,2488.97,2789.99,599.85,597.29,38.44,0000 0000 0000 0000 000000
2016-10-14 04:08:44,0.00,2.58,0.00,25.15,28.92,31.42,14.45,46.36,1026.27,2025.00,2556.99,2488.98,2789.99,599.66,597.00,38.49,0000 0000 0000 0000 000000
2016-10-14 04:13:45,0.00,2.58,0.00,25.15,28.92,31.41,14.39,46.43,1026.23,2024.99,2556.98,2488.97,2789.99,599.84,597.19,38.54,0000 0000 0000 0000 000000
2016-10-14 04:18:46,0.00,2.58,0.00,25.18,28.92,31.42,14.45,46.25,1026.20,2024.99,2556.98,2488.98,2789.99,600.01,597.27,38.59,0000 0000 0000 0000 000000
2016-10-14 04:23:48,0.00,2.58,0.00,25.21,28.92,31.42,14.50,46.48,1026.30,2024.99,2556.99,2488.98,2789.99,599.92,597.14,38.64,0000 0000 0000 0000 000000
2016-10-14 04:28:49,0.00,2.58,0.00,25.24,28.92,31.42,14.41,46.26,1026.31,2024.99,2556.99,2488.97,2789.99,599.63,596.79,38.69,0000 0000 0000 0000 000000
2016-10-14 04:33:50,0.00,2.58,0.00,25.26,28.92,31.43,14.53,46.45,1026.32,2024.99,2556.98,2488.96,2789.99,600.47,597.55,38.74,0000 0000 0000 0000 000000
2016-10-14 04:38:52,0.01,2.58,0.00,25.28,28.92,31.40,14.46,46.32,1026.30,2024.99,2556.85,2488.94,2789.96,600.12,597.21,38.79,0000 0000 0000 0000 000000
2016-10-14 04:43:53,-0.00,2.58,0.00,25.30,28.92,31.40,14.41,46.33,1026.26,2024.99,2556.84,2488.95,2789.98,600.25,597.36,38.85,0000 0000 0000 0000 000000
2016-10-14 04:48:54,0.00,2.58,0.00,25.31,28.92,31.40,14.53,46.57,1026.29,2024.99,2556.92,2488.95,2789.97,599.93,597.09,38.90,0000 0000 0000 0000 000000
2016-10-14 04:53:55,0.00,2.58,0.00,25.32,28.92,31.40,14.40,46.42,1026.32,2024.99,2556.78,2488.91,2789.96,599.75,596.76,38.95,0000 0000 0000 0000 000000
2016-10-14 04:58:57,-0.00,2.58,0.00,25.34,28.92,31.40,14.45,46.47,1026.35,2024.99,2556.82,2488.91,2789.95,599.86,596.76,39.00,0000 0000 0000 0000 000000
2016-10-14 05:03:58,0.01,2.58,0.00,25.35,28.92,31.40,14.40,46.42,1026.37,2024.99,2556.70,2488.82,2789.96,599.69,596.66,39.05,0000 0000 0000 0000 000000
2016-10-14 05:08:59,0.01,2.58,0.00,25.38,28.92,31.40,14.42,46.38,1026.37,2024.99,2556.35,2488.68,2789.84,599.81,596.88,39.10,0000 0000 0000 0000 000000
2016-10-14 05:14:01,0.01,2.58,0.00,25.39,28.92,31.42,14.37,46.34,1026.38,2024.99,2556.31,2488.41,2789.78,599.61,596.54,39.15,0000 0000 0000 0000 000000
2016-10-14 05:19:02,-0.01,2.58,0.00,25.40,28.92,31.43,14.41,46.33,1026.38,2024.99,2556.56,2488.41,2789.90,600.18,597.05,39.20,0000 0000 0000 0000 000000
2016-10-14 05:24:03,-0.01,2.58,0.00,25.41,28.93,31.40,14.36,46.28,1026.38,2024.99,2556.74,2488.47,2789.95,599.91,596.69,39.25,0000 0000 0000 0000 000000
2016-10-14 05:29:04,0.02,2.58,0.00,25.43,28.93,31.42,14.46,46.49,1026.38,2024.99,2556.52,2488.31,2789.87,600.18,596.96,39.30,0000 0000 0000 0000 000000
2016-10-14 05:34:05,-0.00,2.58,0.00,25.44,28.94,31.41,14.46,46.38,1026.38,2024.99,2556.42,2488.19,2789.84,599.51,596.37,39.35,0000 0000 0000 0000 000000
2016-10-14 05:39:06,-0.01,2.58,0.00,25.45,28.94,31.41,14.39,46.38,1026.38,2024.98,2556.69,2488.16,2789.94,599.63,596.44,39.40,0000 0000 0000 0000 000000
2016-10-14 05:44:08,-0.00,2.58,0.00,25.46,28.95,31.42,14.48,46.51,1026.38,2024.99,2556.85,2488.24,2789.97,600.54,597.21,39.45,0000 0000 0000 0000 000000
2016-10-14 05:49:09,0.00,2.58,0.00,25.47,28.95,31.42,14.43,46.42,1026.38,2024.98,2556.91,2488.19,2789.97,600.10,596.85,39.50,0000 0000 0000 0000 000000
2016-10-14 05:54:10,0.00,2.58,0.00,25.49,28.95,31.43,14.52,46.58,1026.38,2024.96,2556.93,2488.19,2789.97,600.32,596.95,39.55,0000 0000 0000 0000 000000
2016-10-14 05:59:12,0.00,2.58,0.00,25.49,28.95,31.43,14.50,46.57,1026.38,2024.96,2556.91,2488.12,2789.96,600.24,597.09,39.60,0000 0000 0000 0000 000000
2016-10-14 06:04:13,0.01,2.58,0.00,25.50,28.95,31.44,14.48,46.48,1026.38,2024.97,2556.65,2488.05,2789.92,600.12,596.85,39.65,0000 0000 0000 0000 000000
2016-10-14 06:09:14,0.01,2.58,0.00,25.52,28.95,31.44,14.47,46.38,1026.38,2024.97,2556.54,2488.06,2789.87,599.98,596.67,39.70,0000 0000 0000 0000 000000
2016-10-14 06:14:15,0.01,2.58,0.00,25.55,28.95,31.43,14.41,46.45,1026.39,2024.97,2556.11,2488.03,2789.47,599.82,596.46,39.75,0000 0000 0000 0000 000000
2016-10-14 06:19:17,0.00,2.58,0.00,25.55,28.95,31.43,14.43,46.30,1026.39,2024.94,2556.08,2488.01,2789.19,600.41,597.03,39.80,0000 0000 0000 0000 000000
2016-10-14 06:24:18,0.01,2.58,0.00,25.57,28.97,31.44,14.40,46.38,1026.40,2024.96,2556.02,2488.01,2789.07,599.91,596.50,39.85,0000 0000 0000 0000 000000
2016-10-14 06:29:19,0.00,2.58,0.00,25.58,28.97,31.44,14.41,46.33,1026.40,2024.91,2556.02,2488.00,2789.06,599.85,596.47,39.91,0000 0000 0000 0000 000000
2016-10-14 06:34:21,-0.01,2.58,0.00,25.59,28.97,31.45,14.44,46.31,1026.40,2024.81,2556.04,2488.00,2789.05,600.28,596.71,39.96,0000 0000 0000 0000 000000
2016-10-14 06:39:22,-0.02,2.58,0.00,25.60,28.98,31.46,14.50,46.42,1026.40,2024.62,2556.06,2488.00,2789.07,600.15,596.63,40.01,0000 0000 0000 0000 000000
2016-10-14 06:44:23,-0.01,2.58,0.00,25.61,29.00,31.48,14.50,46.44,1026.40,2024.47,2556.08,2488.00,2789.07,600.60,597.12,40.06,0000 0000 0000 0000 000000
2016-10-14 06:49:24,-0.02,2.58,0.00,25.62,29.00,31.50,14.39,46.44,1026.44,2024.32,2556.13,2488.00,2789.10,600.06,596.58,40.11,0000 0000 0000 0000 000000
2016-10-14 06:54:25,-0.01,2.58,0.00,25.62,29.00,31.48,14.51,46.52,1026.48,2024.17,2556.08,2488.00,2789.06,599.99,596.51,40.16,0000 0000 0000 0000 000000
2016-10-14 06:59:26,-0.00,2.58,0.00,25.65,29.01,31.50,14.41,46.27,1026.48,2024.10,2556.07,2487.99,2789.05,600.03,596.49,40.21,0000 0000 0000 0000 000000
2016-10-14 07:04:28,-0.01,2.58,0.00,25.64,29.02,31.52,14.46,46.37,1026.49,2024.04,2556.30,2487.99,2789.06,599.84,596.42,40.26,0000 0000 0000 0000 000000
2016-10-14 07:09:29,-0.02,2.58,0.00,25.64,29.02,31.52,14.49,46.50,1026.49,2024.02,2556.73,2487.99,2789.39,599.97,596.42,40.31,0000 0000 0000 0000 000000
2016-10-14 07:14:30,-0.00,2.58,0.00,25.65,29.04,31.53,14.48,46.45,1026.46,2024.01,2556.92,2487.98,2789.61,599.82,596.40,40.36,0000 0000 0000 0000 000000
2016-10-14 07:19:31,0.01,2.58,0.00,25.66,29.05,31.56,14.45,46.31,1026.54,2024.01,2556.82,2487.98,2789.32,600.16,596.53,40.41,0000 0000 0000 0000 000000
2016-10-14 07:24:33,-0.00,2.58,0.00,25.66,29.05,31.55,14.40,46.35,1026.71,2024.00,2556.88,2487.98,2789.34,599.84,596.47,40.46,0000 0000 0000 0000 000000
2016-10-14 07:29:34,0.00,2.58,0.00,25.66,29.07,31.55,14.42,46.35,1026.60,2024.00,2556.86,2487.97,2789.25,600.20,596.69,40.51,0000 0000 0000 0000 000000
2016-10-14 07:34:35,0.02,2.58,0.00,25.66,29.07,31.57,14.42,46.25,1026.70,2024.00,2556.62,2487.91,2789.08,599.76,596.42,40.56,0000 0000 0000 0000 000000
2016-10-14 07:39:36,0.02,2.58,0.00,25.67,29.07,31.57,14.48,46.26,1026.78,2024.00,2556.12,2487.72,2789.01,599.95,596.54,40.61,0000 0000 0000 0000 000000
2016-10-14 07:44:38,0.00,2.58,0.00,25.67,29.09,31.59,14.44,46.33,1026.83,2024.00,2556.02,2487.52,2789.00,600.16,596.64,40.66,0000 0000 0000 0000 000000
2016-10-14 07:49:39,-0.01,2.58,0.00,25.68,29.10,31.59,14.47,46.45,1026.84,2024.00,2556.15,2487.58,2789.00,599.98,596.67,40.71,0000 0000 0000 0000 000000
2016-10-14 07:54:40,0.01,2.58,0.00,25.68,29.10,31.60,14.49,46.48,1026.86,2023.99,2556.03,2487.25,2789.00,600.09,596.67,40.76,0000 0000 0000 0000 000000
2016-10-14 07:59:42,0.00,2.58,0.00,25.69,29.12,31.62,14.48,46.32,1026.87,2023.99,2556.02,2487.15,2789.00,600.53,597.09,40.81,0000 0000 0000 0000 000000
2016-10-14 08:04:43,0.00,2.58,0.00,25.69,29.12,31.61,14.43,46.37,1026.87,2023.99,2556.00,2487.07,2789.00,599.96,596.62,40.86,0000 0000 0000 0000 000000
2016-10-14 08:09:44,0.00,2.58,0.00,25.68,29.13,31.62,14.41,46.33,1026.87,2023.99,2556.00,2487.03,2788.99,600.22,597.04,40.91,0000 0000 0000 0000 000000
2016-10-14 08:14:46,-0.00,2.58,0.00,25.68,29.15,31.63,14.45,46.33,1026.87,2023.99,2556.00,2487.02,2788.99,600.11,596.70,40.96,0000 0000 0000 0000 000000
2016-10-14 08:19:47,0.00,2.58,0.00,25.68,29.15,31.62,14.45,46.38,1026.87,2023.98,2556.01,2487.01,2788.99,599.99,596.74,41.02,0000 0000 0000 0000 000000
2016-10-14 08:24:48,-0.00,2.58,0.00,25.68,29.15,31.64,14.40,46.36,1026.87,2023.96,2556.11,2487.01,2788.99,599.73,596.18,41.07,0000 0000 0000 0000 000000
2016-10-14 08:29:49,-0.00,2.58,0.00,25.70,29.17,31.65,14.44,46.32,1026.88,2023.92,2556.01,2487.00,2788.96,600.05,596.54,41.12,0000 0000 0000 0000 000000
2016-10-14 08:34:50,0.00,2.58,0.00,25.69,29.17,31.67,14.39,46.33,1026.88,2023.94,2555.95,2486.97,2788.84,599.90,596.56,41.17,0000 0000 0000 0000 000000
2016-10-14 08:39:51,0.11,2.59,0.00,25.70,29.18,31.67,14.41,46.29,1026.90,2023.91,2554.30,2486.08,2787.46,600.14,596.76,41.22,0000 0000 0000 0000 000000
2016-10-14 08:44:52,0.01,2.59,0.00,25.69,29.19,31.67,14.38,46.32,1026.92,2023.78,2553.76,2485.73,2787.02,599.66,596.47,41.27,0000 0000 0000 0000 000000
2016-10-14 08:49:53,0.27,2.60,0.00,25.68,29.20,31.67,14.50,46.52,1027.00,2023.73,2550.21,2483.64,2785.12,600.09,596.90,41.32,0000 0000 0000 0000 000000
2016-10-14 08:54:55,0.15,2.61,0.00,25.69,29.20,31.68,14.39,46.38,1027.05,2023.66,2546.51,2481.61,2782.83,599.87,596.61,41.37,0000 0000 0000 0000 000000
2016-10-14 08:59:56,0.02,2.61,0.00,25.69,29.20,31.68,14.48,46.47,1027.21,2023.51,2544.91,2480.99,2782.01,599.71,596.67,41.42,0000 0000 0000 0000 000000
2016-10-14 09:04:57,0.06,2.61,0.00,25.69,29.21,31.68,14.45,46.36,1027.19,2023.32,2543.84,2480.22,2781.34,600.59,597.27,41.47,0000 0000 0000 0000 000000
2016-10-14 09:09:59,0.01,2.61,0.00,25.70,29.22,31.70,14.47,46.57,1027.23,2023.16,2543.02,2479.99,2780.99,600.28,597.11,41.52,0000 0000 0000 0000 000000
2016-10-14 09:14:59,0.01,2.61,0.00,25.70,29.22,31.72,14.47,46.38,1027.33,2023.15,2542.73,2479.96,2780.93,600.09,596.95,41.57,0000 0000 0000 0000 000000
2016-10-14 09:20:01,0.06,2.62,0.00,25.71,29.22,31.71,14.46,46.36,1027.36,2023.11,2541.96,2479.22,2780.23,600.12,596.98,41.62,0000 0000 0000 0000 000000
2016-10-14 09:25:02,0.02,2.62,0.00,25.71,29.22,31.69,14.42,46.27,1027.36,2023.12,2541.09,2479.00,2779.99,599.92,596.85,41.67,0000 0000 0000 0000 000000
2016-10-14 09:30:03,-0.00,2.62,0.00,25.70,29.23,31.70,14.51,46.32,1027.36,2023.04,2541.00,2478.97,2779.98,600.20,597.14,41.72,0000 0000 0000 0000 000000
2016-10-14 09:35:05,0.00,2.62,0.00,25.71,29.25,31.71,14.44,46.32,1027.36,2023.05,2540.99,2478.96,2779.97,599.81,596.66,41.77,0000 0000 0000 0000 000000
2016-10-14 09:40:06,0.00,2.62,0.00,25.70,29.25,31.72,14.41,46.29,1027.36,2023.02,2540.99,2478.92,2779.83,599.80,596.76,41.82,0000 0000 0000 0000 000000
2016-10-14 09:45:08,0.00,2.62,0.00,25.71,29.25,31.72,14.45,46.19,1027.36,2023.01,2540.98,2478.90,2779.86,600.05,596.79,41.87,0000 0000 0000 0000 000000
2016-10-14 09:50:09,0.00,2.62,0.00,25.70,29.25,31.71,14.46,46.29,1027.36,2023.01,2540.98,2478.84,2779.91,599.85,596.80,41.92,0000 0000 0000 0000 000000
2016-10-14 09:55:10,0.02,2.62,0.00,25.71,29.25,31.71,14.35,46.23,1027.36,2023.01,2540.89,2478.55,2779.57,599.13,596.04,41.97,0000 0000 0000 0000 000000
2016-10-14 10:00:11,0.01,2.62,0.00,25.70,29.25,31.72,14.44,46.33,1027.36,2023.00,2540.72,2478.25,2779.21,599.74,596.64,42.03,0000 0000 0000 0000 000000
2016-10-14 10:05:13,-0.02,2.62,0.00,25.70,29.25,31.76,14.51,46.39,1027.37,2023.00,2540.94,2478.43,2779.60,600.22,597.02,42.08,0000 0000 0000 0000 000000
2016-10-14 10:10:14,-0.00,2.62,0.00,25.70,29.25,31.73,14.37,46.25,1027.37,2023.00,2541.01,2478.58,2779.97,599.69,596.51,42.13,0000 0000 0000 0000 000000
2016-10-14 10:15:15,0.01,2.62,0.00,25.71,29.25,31.73,14.52,46.42,1027.37,2022.99,2541.00,2478.20,2779.98,600.49,597.34,42.18,0000 0000 0000 0000 000000
2016-10-14 10:20:16,0.01,2.62,0.00,25.71,29.25,31.74,14.48,46.32,1027.38,2022.99,2541.00,2478.12,2779.97,600.00,596.80,42.23,0000 0000 0000 0000 000000
2016-10-14 10:25:18,-0.00,2.62,0.00,25.70,29.25,31.73,14.51,46.49,1027.39,2022.99,2541.00,2478.15,2779.95,600.21,597.09,42.28,0000 0000 0000 0000 000000
2016-10-14 10:30:19,0.00,2.62,0.00,25.70,29.25,31.73,14.41,46.35,1027.37,2022.99,2541.00,2478.15,2779.95,600.08,596.95,42.33,0000 0000 0000 0000 000000
2016-10-14 10:35:20,-0.00,2.62,0.00,25.69,29.25,31.74,14.41,46.42,1027.37,2022.99,2540.99,2478.09,2779.93,599.78,596.65,42.38,0000 0000 0000 0000 000000
2016-10-14 10:40:22,-0.00,2.62,0.00,25.68,29.25,31.73,14.54,46.38,1027.37,2022.99,2541.07,2478.20,2779.98,600.05,596.99,42.43,0000 0000 0000 0000 000000
2016-10-14 10:45:23,-0.00,2.62,0.00,25.68,29.25,31.74,14.43,46.60,1027.37,2022.99,2541.17,2478.40,2779.99,599.88,596.85,42.48,0000 0000 0000 0000 000000
2016-10-14 10:50:24,0.00,2.62,0.00,25.67,29.25,31.73,14.41,46.56,1027.37,2022.99,2541.01,2478.25,2779.99,600.04,596.98,42.53,0000 0000 0000 0000 000000
2016-10-14 10:55:25,0.00,2.62,0.00,25.67,29.25,31.75,14.45,46.53,1027.38,2022.98,2541.00,2478.07,2779.98,600.05,597.05,42.58,0000 0000 0000 0000 000000
2016-10-14 11:00:27,0.00,2.62,0.00,25.66,29.25,31.73,14.52,46.61,1027.40,2022.98,2541.00,2478.07,2779.98,600.02,596.99,42.63,0000 0000 0000 0000 000000
2016-10-14 11:05:28,0.00,2.62,0.00,25.65,29.25,31.72,14.43,46.67,1027.39,2022.99,2541.00,2478.04,2779.99,599.52,596.49,42.68,0000 0000 0000 0000 000000
2016-10-14 11:10:29,0.00,2.62,0.00,25.65,29.25,31.73,14.47,46.63,1027.39,2022.98,2541.00,2478.03,2779.99,599.95,596.87,42.73,0000 0000 0000 0000 000000
2016-10-14 11:15:31,0.00,2.62,0.00,25.65,29.24,31.73,14.41,46.70,1027.38,2022.99,2541.00,2478.03,2779.98,599.73,596.79,42.78,0000 0000 0000 0000 000000
2016-10-14 11:20:32,0.00,2.62,0.00,25.65,29.23,31.73,14.49,46.64,1027.39,2022.98,2540.99,2478.04,2779.98,599.97,597.07,42.83,0000 0000 0000 0000 000000
2016-10-14 11:25:33,0.00,2.62,0.00,25.65,29.22,31.72,14.53,46.56,1027.40,2022.99,2540.99,2478.06,2779.99,600.28,597.08,42.88,0000 0000 0000 0000 000000
2016-10-14 11:30:35,0.00,2.62,0.00,25.65,29.22,31.73,14.46,46.57,1027.41,2022.99,2540.99,2478.07,2779.99,599.85,596.90,42.93,0000 0000 0000 0000 000000
2016-10-14 11:35:36,0.00,2.62,0.00,25.65,29.22,31.71,14.50,46.50,1027.43,2022.99,2540.99,2478.09,2779.98,600.15,597.18,42.98,0000 0000 0000 0000 000000
2016-10-14 11:40:37,-0.00,2.62,0.00,25.64,29.22,31.71,14.45,46.43,1027.46,2022.99,2540.99,2478.14,2779.98,599.68,596.83,43.04,0000 0000 0000 0000 000000
2016-10-14 11:45:39,0.00,2.62,0.00,25.64,29.22,31.71,14.48,46.48,1027.45,2022.99,2540.99,2478.17,2779.98,599.75,596.80,43.09,0000 0000 0000 0000 000000
2016-10-14 11:50:40,0.00,2.62,0.00,25.63,29.22,31.70,14.46,46.48,1027.43,2022.99,2540.99,2478.18,2779.98,599.89,597.01,43.14,0000 0000 0000 0000 000000
2016-10-14 11:55:41,-0.01,2.62,0.00,25.62,29.21,31.72,14.50,46.43,1027.47,2022.99,2540.99,2478.26,2779.99,600.06,597.19,43.19,0000 0000 0000 0000 000000
2016-10-14 12:00:42,0.00,2.62,0.00,25.62,29.20,31.72,14.46,46.48,1027.53,2023.00,2540.99,2478.24,2779.99,599.93,597.10,43.24,0000 0000 0000 0000 000000
2016-10-14 12:05:43,0.00,2.62,0.00,25.62,29.20,31.72,14.45,46.42,1027.62,2023.00,2540.99,2478.14,2779.99,599.80,596.98,43.29,0000 0000 0000 0000 000000
2016-10-14 12:10:45,0.00,2.62,0.00,25.62,29.20,31.70,14.46,46.48,1027.76,2023.00,2540.99,2478.11,2779.99,600.07,597.43,43.34,0000 0000 0000 0000 000000
2016-10-14 12:15:46,0.00,2.62,0.00,25.60,29.20,31.71,14.43,46.47,1027.81,2023.00,2540.99,2478.09,2779.99,600.08,597.54,43.39,0000 0000 0000 0000 000000
2016-10-14 12:20:47,0.00,2.62,0.00,25.59,29.20,31.67,14.48,46.50,1027.80,2023.00,2540.99,2478.12,2779.98,599.94,597.25,43.44,0000 0000 0000 0000 000000
2016-10-14 12:25:48,-0.01,2.62,0.00,25.57,29.20,31.69,14.47,46.44,1027.83,2023.00,2540.98,2478.20,2779.99,599.78,597.23,43.49,0000 0000 0000 0000 000000
2016-10-14 12:30:49,-0.05,2.62,0.00,25.57,29.19,31.68,14.52,46.42,1027.84,2023.00,2541.68,2478.78,2780.42,600.26,597.62,43.54,0000 0000 0000 0000 000000
2016-10-14 12:35:51,-0.01,2.62,0.00,25.56,29.18,31.66,14.47,46.48,1027.84,2022.99,2542.01,2478.95,2780.96,599.88,597.32,43.59,0000 0000 0000 0000 000000
2016-10-14 12:40:52,0.00,2.62,0.00,25.57,29.17,31.71,14.41,46.61,1027.84,2022.99,2542.01,2478.96,2780.95,599.71,597.15,43.64,0000 0000 0000 0000 000000
2016-10-14 12:45:54,0.00,2.62,0.00,25.55,29.17,31.69,14.45,46.68,1027.85,2022.98,2542.01,2478.97,2780.99,599.96,597.48,43.69,0000 0000 0000 0000 000000
2016-10-14 12:50:55,0.00,2.62,0.00,25.55,29.16,31.67,14.48,46.45,1027.85,2022.98,2542.00,2478.95,2780.98,600.00,597.49,43.74,0000 0000 0000 0000 000000
2016-10-14 12:55:57,0.00,2.62,0.00,25.52,29.15,31.66,14.44,46.37,1027.85,2022.99,2541.98,2478.94,2780.95,599.80,597.33,43.79,0000 0000 0000 0000 000000